Tracking 21473 objects as of 19-Sep-2020
HD Live streaming from Space Station
objects crossing your sky now

ARIANE 5 R/B

Track ARIANE 5 R/B now!
10-day predictions


NORAD ID: 36034
Int'l Code: 2009-058C
Perigee: 216.5 km
Apogee: 24,564.7 km
Inclination: 6.3 °
Period: 426.3 minutes
Semi major axis: 18761 km
RCS: 21.239 m2 (large)
Launch date: October 29, 2009
Source: France (FR)
Launch site: FRENCH GUIANA (FRGUI)

Note: This is a ROCKET BODY
aabbcc
Your satellite tracking list
Your tracking list is empty




NASA's NSSDC Master Catalog

Two Line Element Set (TLE):
1 36034U 09058C   20261.94303262 +.00007903 +00000-0 +47108-3 0  9990
2 36034 006.3010 087.5674 6488833 288.8379 014.3866 03.37829051115272
Source of the keplerian elements: AFSPC